Regional Weather Roundup
Issued by NWS Newport/Morehead, NC

Current Version | Previous Version | Text Only | Print | Product List | Glossary Off
Versions: 1 2 3 4 5 6 7 8 9 10 11 12 13 14 15 16 17 18 19 20 21 22 23 24 25 26 27 28 29 30 31 32 33 34 35 36 37 38 39 40 41 42 43 44 45 46 47 48 49 50

000
ASUS42 KMHX 070125
RWRMHX
WEATHER ROUNDUP FOR EASTERN NORTH CAROLINA
NATIONAL WEATHER SERVICE NEWPORT/MOREHEAD CITY NC
800 PM EST SAT FEB 06 2016

NOTE: "FAIR" INDICATES FEW OR NO CLOUDS BELOW 12,000 FEET
WITH NO SIGNIFICANT WEATHER AND/OR OBSTRUCTIONS TO VISIBILITY

NCZ015>017-031-032-045>047-102-103-070200-
NORTH COAST

CITY           SKY/WX    TMP DP  RH WIND       PRES   REMARKS
EDENTON        MOCLDY    40  33  76 CALM      30.34S
ELIZABETH CITY MOCLDY    39  32  76 NE7       30.33F
KITTY HAWK     CLOUDY    42  32  68 N5        30.30F
MANTEO         CLOUDY    42  34  72 NE9       30.31F

$$

NCZ045>047-081-094-103-104-070200-
CENTRAL COAST

CITY           SKY/WX    TMP DP  RH WIND       PRES   REMARKS
FRISCO         CLOUDY    44  37  76 N9G18     30.29F
SWANQUARTER      N/A     43 N/A N/A N6G12     30.27F

$$

NCZ095-097-098-100-101-070200-
SOUTHERN COAST

CITY           SKY/WX    TMP DP  RH WIND       PRES   REMARKS
BEAUFORT       CLOUDY    44  34  67 N13       30.27F
CEDAR ISLAND     N/A     45 N/A N/A N21       30.33F
JACKSONVILLE   CLOUDY    45  29  53 NE10      30.27F
PINEY ISLAND   CLOUDY   N/A N/A N/A MISG      30.28F
WILMINGTON     CLOUDY    45  32  60 N13       30.26S


$$

NCZ011>013-027>030-043-044-078>080-089-090>093-098-070200-
COASTAL PLAIN

CITY           SKY/WX    TMP DP  RH WIND       PRES   REMARKS
AHOSKIE        CLEAR     32  27  80 CALM      30.33F
CLINTON        CLOUDY    45  29  54 NE3       30.30S
ELIZABETHTOWN  CLOUDY    45  26  48 CALM      30.27F
GOLDSBORO      CLOUDY    43  25  49 N5        30.29S
GREENVILLE     CLOUDY    43  27  52 E5        30.31F
HAVELOCK       CLOUDY    44  30  57 N13       30.29F
KENANSVILLE      N/A     43  28  56 CALM      30.30S
KINSTON        CLOUDY    45  28  53 NE5       30.30F
NEW BERN       CLOUDY    44  29  55 NE13      30.31F
RICHLANDS      CLOUDY    43  25  49 N12       30.28F
ROCKY MOUNT    CLOUDY    39  24  55 CALM      30.31F
WASHINGTON     CLOUDY    41  31  68 CALM      30.31F
WHITEVILLE     CLOUDY    46  25  44 NE6       30.26F

$$

AMZ130-135-150-152-154-156-158-170-250-252-270-ANZ085-086-088-633-658-670-070200-
MARINE OBSERVATIONS

STATION/POSITION TIME  TEMP    WIND        PRES    WAVE   SWELL
                       AIR SEA DIR/SP/G            HT/PER HT/PER
                 (UTC) (F)     (DEG/KT/KT) (MB)    (FT/S) (FT/S)
CHESAPEAKE LIGHT 0100   40      80/  3/  5 1028.0
64 E VA BEACH    0050   44 53  360/ 12/ 14 1026.6    3/ 9   3/ 9
DUCK             0100   42 45   30/  9/ 10 1026.1
2 E DUCK         0111      45                N/A     4/12   2/12
OREGON INLET     0100   43 47  360/  8/ 13 1026.0
13E OREGON INLT  0100      46                N/A     5/12   3/12
HATTERAS CG      0100   45 52   10/ 18/ 21 1024.7
DIAMOND BUOY     0050   51 71  360/ 23/ 27 1024.5    6/10   5/10
CAPE LOOKOUT     NOT AVBL
BEAUFORT LAB     0100   44 50   10/ 13/ 20 1023.8
30 SE NEW RVR IN 0108   50 65              1022.5
30 SE NEW RVR IN 0025      65                N/A     5/10   2/11
27 SE WRIGHTSVLE 0108   52 69  360/ 23/ 29 1021.9
5 SE WRIGHTSVLE  0008   48 53   40/ 19/ 27 1024.2
225 S CAPE HAT   0050   62 69   80/ 14/ 17   N/A     7/11   7/11
41 SE CHARLESTON 0050   53 64   20/ 25/ 31 1019.7    7/ 6   3/10

$$



USA.gov is the U.S. government's official web portal to all federal, state and local government web resources and services.